When you browse on this site, cookies collect data to enhance your experience and personalize the content and advertising you see.
Visit our Privacy Policy to learn more. By continuing to use the site, you agree to this use of cookies and data.
  • Em Portugal
  • Lista de países
  • Para 7 dias
  • Temperatura da água
  • Mapas de satélite
  • Mapa do tempo
  • Widgets de tempo
  • user-avatar
    Iniciar Sessão

    Previsão horária em Koryzhi

    Hoje, 25 Junho, Terça-feira

    Tempo Temperatura Precipitação Vento Pressão Humidade
    00:00 +12°C° 0 mm 0 m/s 765 mmHg 67%
    01:00 +11°C° 0 mm 0 m/s 765 mmHg 67%
    02:00 +10°C° 0 mm 0 m/s 765 mmHg 67%
    03:00 +11°C° 0 mm 0 m/s 765 mmHg 68%
    04:00 +11°C° 0 mm 0 m/s 765 mmHg 69%
    05:00 +12°C° 0 mm 0 m/s 765 mmHg 70%
    06:00 +14°C° 0 mm 0 m/s 765 mmHg 64%
    07:00 +18°C° 0 mm 1 m/s 766 mmHg 57%
    08:00 +20°C° 0 mm 1 m/s 766 mmHg 51%
    09:00 +21°C° 0 mm 1 m/s 766 mmHg 48%
    10:00 +23°C° 0 mm 1 m/s 766 mmHg 45%
    11:00 +24°C° 0 mm 2 m/s 765 mmHg 42%
    12:00 +24°C° 0 mm 2 m/s 765 mmHg 42%
    13:00 +25°C° 0 mm 2 m/s 765 mmHg 41%
    14:00 +25°C° 0 mm 2 m/s 765 mmHg 41%
    15:00 +25°C° 0 mm 2 m/s 764 mmHg 43%
    16:00 +24°C° 0 mm 2 m/s 764 mmHg 46%
    17:00 +24°C° 0 mm 2 m/s 763 mmHg 48%
    18:00 +22°C° 0 mm 1 m/s 763 mmHg 54%
    19:00 +21°C° 0 mm 1 m/s 763 mmHg 59%
    20:00 +19°C° 0 mm 1 m/s 763 mmHg 65%
    21:00 +18°C° 0 mm 1 m/s 763 mmHg 62%
    22:00 +16°C° 0 mm 1 m/s 763 mmHg 58%
    23:00 +14°C° 0 mm 0 m/s 763 mmHg 55%

    Amanhã, 26 Junho, Quarta-feira

    Tempo Temperatura Precipitação Vento Pressão Humidade
    00:00 +15°C° 0 mm 1 m/s 763 mmHg 56%
    01:00 +14°C° 0 mm 1 m/s 762 mmHg 57%
    02:00 +14°C° 0 mm 1 m/s 762 mmHg 59%
    03:00 +13°C° 0 mm 0 m/s 762 mmHg 62%
    04:00 +13°C° 0 mm 0 m/s 762 mmHg 66%
    05:00 +14°C° 0 mm 0 m/s 761 mmHg 69%
    06:00 +15°C° 0 mm 0 m/s 761 mmHg 66%
    07:00 +16°C° 0 mm 0 m/s 761 mmHg 63%
    08:00 +17°C° 0 mm 0 m/s 760 mmHg 60%
    09:00 +17°C° 0 mm 0 m/s 760 mmHg 61%
    10:00 +20°C° 0 mm 1 m/s 759 mmHg 62%
    11:00 +20°C° 0 mm 1 m/s 759 mmHg 63%
    12:00 +20°C° 0 mm 1 m/s 758 mmHg 61%
    13:00 +20°C° 0 mm 2 m/s 758 mmHg 59%
    14:00 +21°C° 0 mm 2 m/s 757 mmHg 57%
    15:00 +20°C° 0 mm 2 m/s 756 mmHg 59%
    16:00 +20°C° 0 mm 3 m/s 756 mmHg 60%
    17:00 +20°C° 0 mm 3 m/s 755 mmHg 61%
    18:00 +18°C° 0.6 mm 3 m/s 754 mmHg 72%
    19:00 +17°C° 0.6 mm 3 m/s 753 mmHg 82%
    20:00 +14°C° 0.6 mm 3 m/s 752 mmHg 93%
    21:00 +16°C° 3.4 mm 3 m/s 751 mmHg 95%
    22:00 +17°C° 3.4 mm 2 m/s 750 mmHg 97%
    23:00 +17°C° 3.4 mm 2 m/s 750 mmHg 99%

    Depois de amanhã, 27 Junho, Quinta-feira

    Tempo Temperatura Precipitação Vento Pressão Humidade
    00:00 +17°C° 4.3 mm 2 m/s 749 mmHg 99%
    01:00 +18°C° 4.3 mm 2 m/s 748 mmHg 99%
    02:00 +18°C° 4.3 mm 2 m/s 747 mmHg 99%
    03:00 +18°C° 1.9 mm 2 m/s 746 mmHg 99%
    04:00 +18°C° 1.9 mm 2 m/s 745 mmHg 99%
    05:00 +18°C° 1.9 mm 2 m/s 744 mmHg 99%
    06:00 +18°C° 0.9 mm 2 m/s 744 mmHg 98%
    07:00 +18°C° 0.9 mm 3 m/s 743 mmHg 98%
    08:00 +18°C° 0.9 mm 4 m/s 742 mmHg 97%
    09:00 +17°C° 0.3 mm 4 m/s 742 mmHg 96%
    10:00 +16°C° 0.3 mm 5 m/s 742 mmHg 95%
    11:00 +15°C° 0.3 mm 5 m/s 742 mmHg 94%
    12:00 +16°C° 0.1 mm 6 m/s 743 mmHg 88%
    13:00 +17°C° 0.1 mm 6 m/s 743 mmHg 81%
    14:00 +17°C° 0.1 mm 7 m/s 743 mmHg 75%
    15:00 +17°C° 0.1 mm 7 m/s 743 mmHg 76%
    16:00 +16°C° 0.1 mm 7 m/s 743 mmHg 77%
    17:00 +16°C° 0.1 mm 7 m/s 744 mmHg 77%
    18:00 +15°C° 0.1 mm 7 m/s 744 mmHg 81%
    19:00 +14°C° 0.1 mm 6 m/s 744 mmHg 85%
    20:00 +13°C° 0.1 mm 6 m/s 744 mmHg 88%
    21:00 +13°C° 0.1 mm 6 m/s 744 mmHg 86%
    22:00 +13°C° 0.1 mm 5 m/s 744 mmHg 84%
    23:00 +13°C° 0.1 mm 5 m/s 744 mmHg 82%

    28 Junho, Sexta-feira

    Tempo Temperatura Precipitação Vento Pressão Humidade
    00:00 +13°C° 0 mm 5 m/s 744 mmHg 83%
    01:00 +13°C° 0 mm 5 m/s 743 mmHg 84%
    02:00 +13°C° 0 mm 5 m/s 743 mmHg 84%
    03:00 +13°C° 0.3 mm 5 m/s 743 mmHg 87%
    04:00 +12°C° 0.3 mm 5 m/s 743 mmHg 91%
    05:00 +12°C° 0.3 mm 5 m/s 743 mmHg 94%
    06:00 +12°C° 0.4 mm 5 m/s 743 mmHg 94%
    07:00 +11°C° 0.4 mm 6 m/s 743 mmHg 94%
    08:00 +11°C° 0.4 mm 6 m/s 744 mmHg 94%
    09:00 +13°C° 0.1 mm 6 m/s 744 mmHg 91%
    10:00 +12°C° 0.1 mm 7 m/s 744 mmHg 88%
    11:00 +12°C° 0.1 mm 7 m/s 744 mmHg 84%
    12:00 +14°C° 0.1 mm 7 m/s 745 mmHg 79%
    13:00 +15°C° 0.1 mm 7 m/s 745 mmHg 73%
    14:00 +15°C° 0.1 mm 8 m/s 745 mmHg 67%
    15:00 +16°C° 0 mm 7 m/s 745 mmHg 62%
    16:00 +16°C° 0 mm 7 m/s 746 mmHg 57%
    17:00 +17°C° 0 mm 7 m/s 746 mmHg 51%
    18:00 +15°C° 0 mm 6 m/s 746 mmHg 55%
    19:00 +14°C° 0 mm 5 m/s 746 mmHg 58%
    20:00 +13°C° 0 mm 4 m/s 747 mmHg 62%
    21:00 +12°C° 0 mm 4 m/s 747 mmHg 62%
    22:00 +12°C° 0 mm 4 m/s 747 mmHg 63%
    23:00 +11°C° 0 mm 4 m/s 747 mmHg 63%

    29 Junho, Sábado

    Tempo Temperatura Precipitação Vento Pressão Humidade
    00:00 +10°C° 0 mm 4 m/s 747 mmHg 62%
    01:00 +10°C° 0 mm 4 m/s 747 mmHg 61%
    02:00 +10°C° 0 mm 4 m/s 747 mmHg 60%
    03:00 +10°C° 0 mm 4 m/s 747 mmHg 61%
    04:00 +10°C° 0 mm 4 m/s 748 mmHg 63%
    05:00 +10°C° 0 mm 4 m/s 748 mmHg 64%
    06:00 +10°C° 0 mm 5 m/s 748 mmHg 59%
    07:00 +11°C° 0 mm 6 m/s 748 mmHg 54%
    08:00 +14°C° 0 mm 7 m/s 748 mmHg 49%
    09:00 +14°C° 0 mm 7 m/s 749 mmHg 46%
    10:00 +15°C° 0 mm 7 m/s 749 mmHg 43%
    11:00 +16°C° 0 mm 8 m/s 749 mmHg 40%
    12:00 +16°C° 0 mm 8 m/s 749 mmHg 39%
    13:00 +17°C° 0 mm 8 m/s 749 mmHg 39%
    14:00 +17°C° 0 mm 8 m/s 749 mmHg 38%
    15:00 +17°C° 0 mm 7 m/s 749 mmHg 39%
    16:00 +17°C° 0 mm 7 m/s 749 mmHg 40%
    17:00 +17°C° 0 mm 6 m/s 749 mmHg 41%
    18:00 +15°C° 0 mm 5 m/s 749 mmHg 46%
    19:00 +14°C° 0 mm 4 m/s 750 mmHg 51%
    20:00 +13°C° 0 mm 3 m/s 750 mmHg 57%
    21:00 +12°C° 0 mm 3 m/s 750 mmHg 60%
    22:00 +11°C° 0 mm 3 m/s 750 mmHg 63%
    23:00 +10°C° 0 mm 3 m/s 751 mmHg 66%

    30 Junho, Domingo

    Tempo Temperatura Precipitação Vento Pressão Humidade
    00:00 +10°C° 0 mm 3 m/s 751 mmHg 70%
    01:00 +9°C° 0 mm 3 m/s 751 mmHg 73%
    02:00 +9°C° 0 mm 3 m/s 751 mmHg 77%
    03:00 +9°C° 0 mm 3 m/s 752 mmHg 78%
    04:00 +9°C° 0 mm 3 m/s 752 mmHg 80%
    05:00 +9°C° 0 mm 2 m/s 752 mmHg 81%
    06:00 +11°C° 0 mm 3 m/s 752 mmHg 75%
    07:00 +13°C° 0 mm 3 m/s 752 mmHg 69%
    08:00 +14°C° 0 mm 3 m/s 752 mmHg 64%
    09:00 +17°C° 0 mm 3 m/s 752 mmHg 57%
    10:00 +19°C° 0 mm 3 m/s 752 mmHg 50%
    11:00 +20°C° 0 mm 3 m/s 753 mmHg 44%
    12:00 +21°C° 0 mm 3 m/s 752 mmHg 45%
    13:00 +22°C° 0 mm 3 m/s 752 mmHg 46%
    14:00 +22°C° 0 mm 3 m/s 752 mmHg 48%
    15:00 +23°C° 0 mm 2 m/s 751 mmHg 50%
    16:00 +24°C° 0 mm 2 m/s 751 mmHg 53%
    17:00 +24°C° 0 mm 1 m/s 751 mmHg 56%
    18:00 +23°C° 0 mm 1 m/s 750 mmHg 63%
    19:00 +20°C° 0 mm 2 m/s 750 mmHg 70%
    20:00 +19°C° 0 mm 2 m/s 750 mmHg 78%
    21:00 +19°C° 0 mm 2 m/s 750 mmHg 81%
    22:00 +18°C° 0 mm 3 m/s 750 mmHg 83%
    23:00 +17°C° 0 mm 3 m/s 749 mmHg 86%
    Mostrar mais